Regional Weather Roundup
Issued by NWS Portland, ME

Current Version | Previous Version | Text Only | Print | Product List | Glossary On
Versions: 1 2 3 4 5 6 7 8 9 10 11 12 13 14 15 16 17 18 19 20 21 22 23 24 25 26 27 28 29 30 31 32 33 34 35 36 37 38 39 40 41 42 43 44 45 46 47 48 49 50
000
ASUS41 KGYX 301010
RWRGYX
WEATHER ROUNDUP FOR MAINE AND NEW HAMPSHIRE
NATIONAL WEATHER SERVICE GRAY ME
600 AM EDT TUE SEP 30 2014

MEZ002-005-006-010-012-015-018-020-021-024-026-027-029-301100-
MAINE

CITY           SKY/WX    TMP DP  RH WIND       PRES   REMARKS
PORTLAND       CLOUDY    53  51  93 N9        30.05S FOG
SANFORD        CLOUDY    54  48  82 N8        30.04S
BAR HARBOR     CLOUDY    48  48 100 N9        30.05S
WISCASSET      CLOUDY    52  50  93 VRB3      30.06R
ROCKLAND       CLOUDY    52  48  87 NE9G16    30.04R
FRYEBURG       CLOUDY    52  50  93 NE7       30.06R
LEWISTONAUBURN CLOUDY    52  46  82 N6        30.06R
AUGUSTA        CLOUDY    49  48  97 N8        30.07R
WATERVILLE     CLOUDY    48  43  81 NE8       30.02S
BANGOR         DRIZZLE   48  45  89 NE8       30.08S
GREENVILLE       N/A     44  43  96 SE3       30.05S
MILLINOCKET    CLOUDY    44  43  96 NE5       30.12F
HOULTON        CLOUDY    43  40  89 NE5       30.11F
PRESQUE ISLE   CLOUDY    43  37  81 NE3       30.13S
FRENCHVILLE    CLOUDY    36  35  96 E8        30.13R FOG
CARIBOU        CLOUDY    41  39  93 E5        30.12F FOG
$$

NHZ002-005-008-009-011-012-014-301100-
NEW HAMPSHIRE

CITY           SKY/WX    TMP DP  RH WIND       PRES   REMARKS
PORTSMOUTH     CLOUDY    55  53  94 NE8       30.01S
ROCHESTER      CLOUDY    54  52  93 N5        30.03R FOG
NASHUA         CLOUDY    56  55  96 CALM      30.03R
MANCHESTER     DRIZZLE   56  53  90 N7        30.01S
CONCORD        CLOUDY    55  53  93 NE5       30.03S
LACONIA        CLOUDY    55  52  88 NE7       30.02F
PLYMOUTH       CLOUDY    55  55 100 CALM      30.03S
BERLIN         CLOUDY    51  49  92 CALM      30.03S
WHITEFIELD     MOCLDY    47  45  93 CALM      30.03R
JAFFREY        CLOUDY    54  52  93 VRB3      30.02S
LEBANON        CLOUDY    59  52  77 NE3       30.01S
MT WASHINGTON  CLOUDY    45  39  81 W10         N/A
$$

VTZ005-007-008-301100-
VERMONT

CITY           SKY/WX    TMP DP  RH WIND       PRES   REMARKS
ST JOHNSBURY     N/A     57  54  89 MISG      30.00R
MONTPELIER     CLOUDY    56  53  90 S6        30.04S
BURLINGTON     PTCLDY    49  47  93 CALM      29.98S
$$

MAZ007-012-024-CTZ003-RIZ002-NYZ038-NYZ072-301100-
SOUTHERN NEW ENGLAND AND NY

CITY           SKY/WX    TMP DP  RH WIND       PRES   REMARKS
BOSTON         CLOUDY    56  54  93 N12       30.01R
WORCESTER      CLOUDY    52  52 100 NE6       30.01S
NANTUCKET      CLOUDY    62  60  93 N7        29.97R
PROVIDENCE     CLOUDY    58  55  90 N13       29.99S
HARTFORD       CLOUDY    60  54  80 N7        29.99R
ALBANY         PTCLDY    55  54  96 N3        29.96R FOG
NEW YORK CITY  CLOUDY    68  64  87 NE7       29.92R
$$

ANZ081-ANZ082-ANZ150-NHZ014-MEZ023>029-301100-
COASTAL MARINE OBSERVATIONS

STATION/POSITION TIME  TEMP    WIND        PRES    WAVE
                       AIR SEA DIR/SP/G            HT/PER
                 (UTC) (F)     (DEG/KT/KT) (MB)    (FT/S)
MATINICUS ROCK   0900           50/ 27/ 29 1015.7F
PORTLAND WX BUOY 0950   54 59   30/ 16/ 17 1016.5S   5/ 6
WELLS            0900   54 56   30/  8/  9 1016.0R
ISLE OF SHOALS   0900   55      20/ 20/ 23 1015.6R
JEFFREYS LEDGE   0921      59                N/A     7/ 8
CASHES LEDGE BUO 0950   57 60              1014.3S   6/ 7
$$

.............KEY..............
   WCI - WIND CHILL
   TC  - TEMPERATURE IN CELSIUS
   VSB - VISIBILITY IN MILES
   HX  - HEAT INDEX
   FAIR- INDICATES FEW OR NO CLOUDS BELOW 12,000 FT, WITH NO
         SIGNIFICANT WEATHER AND/OR OBSTRUCTIONS TO VISIBILITY.




USA.gov is the U.S. government's official web portal to all federal, state and local government web resources and services.